Location: Campestrin
(46.4667°N, 11.7167°E)
Time: 03:47:09
(UTC+00:00)

Meteor 2-15 - Pass Details

Date: 18 April 2021
Orbit: 936 x 955 km, 82.5° (Epoch: 16 May)

Event Time Altitude Azimuth Distance (km) Brightness Sun altitude
Exits shadow 21:09:37 68° 136° (SE) 1,010 4.3 -26.2°
Maximum altitude 21:10:11 73° 96° (E) 983 4.3 -26.2°
Drops below altitude 10° 21:16:14 10° 13° (NNE) 2,659 7.3 -26.8°
Sets 21:18:44 0° 12° (NNE) 3,608 8.1 -27.0°
